This is the latest recevied weather packets stored in our database for station/object DK0KTL-4. If no packets are shown the sender has not sent any weather packets the latest 1 day(s).
| Time | Temp. | Humidity | Pressure | Rain* | Wind** | Luminosity | Snow |
|---|---|---|---|---|---|---|---|
| 1778099566 | 12.78° C | 89% | 1005.5 hPa | 0 mm | - | - | - |
| 1778098365 | 12.78° C | 89% | 1005.4 hPa | 0 mm | - | - | - |
| 1778097464 | 12.78° C | 89% | 1005.5 hPa | 0 mm | - | - | - |
| 1778097164 | 12.78° C | 89% | 1005.4 hPa | 0 mm | - | - | - |
| 1778096563 | 12.78° C | 88% | 1005.3 hPa | 0 mm | - | - | - |
| 1778096263 | 13.33° C | 87% | 1005.2 hPa | 0 mm | - | - | - |
| 1778094461 | 13.33° C | 80% | 1004.8 hPa | 0 mm | - | - | - |
| 1778094161 | 13.89° C | 79% | 1004.6 hPa | 0 mm | - | - | - |
| 1778093260 | 14.44° C | 79% | 1004.4 hPa | 0 mm | - | - | - |
| 1778092059 | 15.56° C | 79% | 1004.5 hPa | 0 mm | - | - | - |
| 1778090858 | 16.11° C | 80% | 1004.2 hPa | 0 mm | - | - | - |
| 1778089957 | 16.67° C | 78% | 1003.7 hPa | 0 mm | - | - | - |
| 1778089056 | 16.67° C | 77% | 1003.6 hPa | 0 mm | - | - | - |
| 1778087855 | 17.22° C | 76% | 1003.4 hPa | 0 mm | - | - | - |
| 1778086654 | 17.78° C | 74% | 1003.2 hPa | 0 mm | - | - | - |
| 1778086053 | 18.33° C | 73% | 1003.1 hPa | 0 mm | - | - | - |
| 1778085753 | 18.89° C | 70% | 1003.1 hPa | 0 mm | - | - | - |
| 1778084852 | 20° C | 64% | 1003.1 hPa | 0 mm | - | - | - |
| 1778083651 | 19.44° C | 65% | 1003.1 hPa | 0 mm | - | - | - |
| 1778083050 | 19.44° C | 56% | 1003.2 hPa | 0 mm | - | - | - |
| 1778082750 | 19.44° C | 53% | 1003.2 hPa | 0 mm | - | - | - |
| 1778081549 | 20° C | 52% | 1003.2 hPa | 0 mm | - | - | - |
| 1778080648 | 20.56° C | 51% | 1003.4 hPa | 0 mm | - | - | - |
| 1778079447 | 20.56° C | 51% | 1003.5 hPa | 0 mm | - | - | - |
| 1778078546 | 20.56° C | 51% | 1003.6 hPa | 0 mm | - | - | - |
* Rain latest hour (hover to see other rain measurements)
** Current wind speed in m/s (hover to see current wind gust speed)